Weather History for KCQF - April, 2014

Change the Weather History Date:

Monday, April 14, 2014

  Actual Average (KBFM) Record (KBFM)
Temperature  
Mean Temperature 68 °F -  
Max Temperature 75 °F 74 °F 86 °F (2001)
Min Temperature 62 °F 55 °F 44 °F (2004)
Cooling Degree Days 4    
Growing Degree Days 18 (Base 50)    
Moisture  
Dew Point 65 °F    
Average Humidity 86    
Maximum Humidity 100    
Minimum Humidity 73    
Precipitation  
Precipitation 3.62 in - - ()
Sea Level Pressure  
Sea Level Pressure 29.86 in    
Wind  
Wind Speed 8 mph (SSE)    
Max Wind Speed 20 mph    
Max Gust Speed 26 mph    
Visibility 9 miles    
Events Rain    
Averages and records for this station are not official NWS values.
T = Trace of Precipitation, MM = Missing Value Source: NWS Daily Summary

Daily Weather History Graph

Daily Weather History Graph

Search for Another Location

Airport or City:

Trip Planner

Search our weather history database for the weather conditions in past years. The results will help you decide how hot, cold, wet, or windy it might be!

Date:

Astronomy

Apr. 14, 2014 Rise Set
Actual Time 6:25 AM CDT 7:18 PM CDT
Civil Twilight 6:00 AM CDT 7:43 PM CDT
Nautical Twilight 5:31 AM CDT 8:12 PM CDT
Astronomical Twilight 5:01 AM CDT 8:42 PM CDT
Moon 6:58 PM CDT (4/14) 5:54 AM CDT (4/14)
Length of Visible Light 13h 42m
Length of Day
12h 53m
Full, 100% of the Moon is Illuminated
Apr 14
Full
Apr 15
Full
Apr 22
Last Quarter
Apr 29
New
May 6
First Quarter

Hourly Weather History & Observations

Time (CDT) Temp. Dew Point Humidity Pressure Visibility Wind Dir Wind Speed Gust Speed Precip Events Conditions
12:15 AM 64.4 °F 62.6 °F 94% 29.97 in 7.0 mi Calm Calm - N/A   Clear
12:35 AM 62.6 °F 62.6 °F 100% 29.96 in 4.0 mi Calm Calm - N/A   Clear
12:55 AM 62.6 °F 62.6 °F 100% 29.94 in 4.0 mi SE 4.6 mph - N/A   Clear
1:15 AM 64.4 °F 64.4 °F 100% 29.93 in 10.0 mi SE 6.9 mph - N/A   Clear
1:35 AM 64.4 °F 64.4 °F 100% 29.92 in 10.0 mi SE 9.2 mph - N/A   Clear
1:55 AM 66.2 °F 64.4 °F 94% 29.91 in 10.0 mi SSE 9.2 mph - N/A   Clear
2:15 AM 66.2 °F 62.6 °F 88% 29.89 in 10.0 mi SSE 9.2 mph - N/A   Clear
2:35 AM 68.0 °F 62.6 °F 83% 29.89 in 10.0 mi SSE 10.4 mph - N/A   Clear
2:55 AM 68.0 °F 62.6 °F 83% 29.88 in 10.0 mi SSE 10.4 mph - N/A   Clear
3:15 AM 68.0 °F 62.6 °F 83% 29.88 in 10.0 mi SSE 11.5 mph 16.1 mph N/A   Clear
3:35 AM 68.0 °F 62.6 °F 83% 29.88 in 10.0 mi SSE 10.4 mph - N/A   Clear
3:55 AM 68.0 °F 62.6 °F 83% 29.87 in 10.0 mi SSE 12.7 mph - N/A   Scattered Clouds
4:15 AM 68.0 °F 62.6 °F 83% 29.87 in 10.0 mi SSE 10.4 mph - N/A   Mostly Cloudy
4:35 AM 68.0 °F 62.6 °F 83% 29.86 in 10.0 mi SSE 12.7 mph - N/A   Scattered Clouds
4:55 AM 68.0 °F 62.6 °F 83% 29.86 in 10.0 mi SSE 13.8 mph - N/A   Scattered Clouds
5:15 AM 68.0 °F 62.6 °F 83% 29.86 in 10.0 mi South 16.1 mph 21.9 mph N/A   Mostly Cloudy
5:35 AM 68.0 °F 60.8 °F 78% 29.86 in 10.0 mi SSE 15.0 mph 19.6 mph N/A   Scattered Clouds
5:55 AM 68.0 °F 60.8 °F 78% 29.85 in 10.0 mi SSE 12.7 mph 21.9 mph N/A   Scattered Clouds
6:15 AM 68.0 °F 62.6 °F 83% 29.86 in 10.0 mi SSE 11.5 mph - N/A   Mostly Cloudy
6:35 AM 68.0 °F 62.6 °F 83% 29.87 in 10.0 mi SSE 10.4 mph - N/A   Mostly Cloudy
6:55 AM 68.0 °F 62.6 °F 83% 29.88 in 10.0 mi SSE 11.5 mph 18.4 mph N/A   Scattered Clouds
7:15 AM 68.0 °F 62.6 °F 83% 29.86 in 10.0 mi SSE 13.8 mph 18.4 mph N/A   Clear
7:35 AM 69.8 °F 62.6 °F 78% 29.88 in 10.0 mi SSE 11.5 mph - N/A   Clear
7:55 AM 69.8 °F 64.4 °F 83% 29.89 in 10.0 mi SSE 12.7 mph 18.4 mph N/A   Clear
8:15 AM 71.6 °F 64.4 °F 78% 29.90 in 10.0 mi South 17.3 mph - N/A   Clear
8:35 AM 71.6 °F 64.4 °F 78% 29.91 in 10.0 mi South 16.1 mph - N/A   Clear
8:55 AM 73.4 °F 64.4 °F 73% 29.90 in 10.0 mi South 18.4 mph - N/A   Clear
9:15 AM 73.4 °F 64.4 °F 73% 29.91 in 10.0 mi South 15.0 mph - N/A   Clear
9:35 AM 73.4 °F 64.4 °F 73% 29.91 in 10.0 mi South 17.3 mph 26.5 mph N/A   Clear
9:55 AM 73.4 °F 64.4 °F 73% 29.90 in 10.0 mi South 19.6 mph - N/A   Clear
10:15 AM 73.4 °F 64.4 °F 73% 29.91 in 10.0 mi South 16.1 mph 25.3 mph N/A   Clear
10:35 AM 75.2 °F 66.2 °F 73% 29.92 in 10.0 mi South 18.4 mph 23.0 mph N/A   Clear
10:55 AM 73.4 °F 66.2 °F 78% 29.92 in 10.0 mi South 17.3 mph - N/A   Mostly Cloudy
11:15 AM 73.4 °F 66.2 °F 78% 29.91 in 10.0 mi South 12.7 mph 23.0 mph N/A   Mostly Cloudy
11:35 AM 73.4 °F 66.2 °F 78% 29.92 in 10.0 mi South 15.0 mph 21.9 mph N/A   Mostly Cloudy
11:55 AM 71.6 °F 66.2 °F 83% 29.93 in 10.0 mi SSW 6.9 mph - N/A   Overcast
12:35 PM 73.4 °F 66.2 °F 78% 29.92 in 10.0 mi SW 3.5 mph - N/A   Overcast
12:55 PM 69.8 °F 64.4 °F 83% 29.92 in 10.0 mi NW 6.9 mph - N/A   Overcast
1:15 PM 69.8 °F 64.4 °F 83% 29.91 in 10.0 mi NW 4.6 mph - N/A   Overcast
1:35 PM 69.8 °F 64.4 °F 83% 29.90 in 10.0 mi Calm Calm - N/A   Overcast
1:55 PM 69.8 °F 64.4 °F 83% 29.89 in 10.0 mi Calm Calm - N/A   Overcast
2:15 PM 71.6 °F 66.2 °F 83% 29.88 in 10.0 mi Calm Calm - N/A   Overcast
2:35 PM 71.6 °F 66.2 °F 83% 29.87 in 10.0 mi South 5.8 mph - N/A   Overcast
3:15 PM 73.4 °F 68.0 °F 83% 29.84 in 10.0 mi South 5.8 mph - N/A   Overcast
3:35 PM 73.4 °F 68.0 °F 83% 29.83 in 10.0 mi South 8.1 mph - N/A   Overcast
3:55 PM 71.6 °F 68.0 °F 88% 29.83 in 10.0 mi South 5.8 mph - N/A   Overcast
4:15 PM 71.6 °F 68.0 °F 88% 29.83 in 10.0 mi South 5.8 mph - N/A   Overcast
4:35 PM 71.6 °F 68.0 °F 88% 29.81 in 10.0 mi SSE 4.6 mph - N/A Rain Light Rain
4:55 PM 69.8 °F 68.0 °F 94% 29.80 in 7.0 mi ESE 4.6 mph - 0.01 in Rain Rain
5:15 PM 69.8 °F 68.0 °F 94% 29.78 in 7.0 mi East 5.8 mph - 0.01 in Rain Light Rain
5:35 PM 69.8 °F 68.0 °F 94% 29.78 in 7.0 mi ESE 4.6 mph - 0.01 in Rain Light Rain
5:55 PM 68.0 °F 68.0 °F 100% 29.76 in 1.8 mi NE 8.1 mph - 0.40 in Rain Heavy Rain
6:15 PM 68.0 °F 68.0 °F 100% 29.75 in 2.5 mi NE 6.9 mph - 0.23 in Rain Heavy Rain
6:35 PM 68.0 °F 68.0 °F 100% 29.73 in 1.2 mi East 10.4 mph - 0.98 in Rain Heavy Rain
6:55 PM 66.2 °F 64.4 °F 94% 29.73 in 1.2 mi North 8.1 mph 16.1 mph 1.79 in Rain Heavy Rain
7:15 PM 64.4 °F 62.6 °F 94% 29.73 in 5.0 mi NE 9.2 mph 25.3 mph 0.19 in Rain Light Rain
7:35 PM 64.4 °F 64.4 °F 100% 29.75 in 1.8 mi NNW 11.5 mph 19.6 mph 0.57 in Rain Heavy Rain
7:55 PM 64.4 °F 64.4 °F 100% 29.74 in 2.5 mi NW 9.2 mph - 1.34 in Rain Heavy Rain
8:15 PM 64.4 °F 64.4 °F 100% 29.74 in 5.0 mi ESE 5.8 mph - 0.08 in Rain Heavy Rain